Watsonville, CA

1:10 AM PDT on October 21, 2019 (GMT -0700)
Watsonville Municipal

Weather History for KWVI - August, 2019

Change the Weather History Date:

Friday, August 9, 2019

  Actual Average Record
Temperature  
Mean Temperature 67 °F 64 °F  
Max Temperature 80 °F 74 °F 95 °F (2002)
Min Temperature 53 °F 53 °F 49 °F (2012)
Degree Days  
Heating Degree Days 0    
Month to date heating degree days 6  
Since 1 June heating degree days 144  
Since 1 July heating degree days 53  
Cooling Degree Days 2    
Month to date cooling degree days 7  
Year to date cooling degree days 61  
Since 1 June cooling degree days 61  
Growing Degree Days 16 (Base 50)    
Moisture  
Dew Point 55 °F    
Average Humidity 66    
Maximum Humidity 90    
Minimum Humidity 42    
Precipitation  
Precipitation 0.00 in - 0.04 in (1962)
Month to date precipitation T  
Year to date precipitation 22.76  
Sea Level Pressure  
Sea Level Pressure 29.97 in    
Wind  
Wind Speed 5 mph (SSE)    
Max Wind Speed 12 mph    
Max Gust Speed 14 mph    
Visibility 10 miles    
Events      
T = Trace of Precipitation, MM = Missing Value Source: NWS Daily Summary

Daily Weather History Graph

Daily Weather History Graph

Search for Another Location

Airport or City:

Astronomy

Aug. 09, 2019 Rise Set
Actual Time 6:19 AM PDT 8:05 PM PDT
Civil Twilight 5:50 AM PDT 8:33 PM PDT
Nautical Twilight 5:16 AM PDT 9:07 PM PDT
Astronomical Twilight 4:40 AM PDT 9:43 PM PDT
Moon 3:50 PM PDT (8/9) 1:20 AM PDT (8/9)
Length of Visible Light 14h 42m
Length of Day
13h 46m
Waxing Gibbous, 71% of the Moon is Illuminated
Aug 9
Waxing Gibbous
Aug 15
Full
Aug 23
Last Quarter
Aug 30
New
Sep 5
First Quarter

Hourly Weather History & Observations

Time (PDT) Temp. Dew Point Humidity Pressure Visibility Wind Dir Wind Speed Gust Speed Precip Events Conditions
12:53 AM 57.9 °F 52.0 °F 81% 29.98 in 10.0 mi North 3.5 mph - N/A   Clear
1:53 AM 53.1 °F 50.0 °F 89% 29.97 in 10.0 mi Calm Calm - N/A   Clear
2:53 AM 55.9 °F 51.1 °F 84% 29.96 in 10.0 mi North 3.5 mph - N/A   Clear
3:53 AM 55.9 °F 51.1 °F 84% 29.96 in 10.0 mi NNW 3.5 mph - N/A   Clear
4:53 AM 55.9 °F 51.1 °F 84% 29.96 in 10.0 mi NNW 3.5 mph - N/A   Clear
5:53 AM 55.9 °F 51.1 °F 84% 29.96 in 10.0 mi North 3.5 mph - N/A   Clear
6:53 AM 55.0 °F 51.1 °F 86% 29.98 in 10.0 mi West 3.5 mph - N/A   Clear
7:53 AM 60.1 °F 53.1 °F 78% 29.99 in 10.0 mi Calm Calm - N/A   Clear
8:53 AM 64.0 °F 53.1 °F 67% 29.99 in 10.0 mi ENE 3.5 mph - N/A   Clear
9:53 AM 71.1 °F 53.1 °F 53% 29.99 in 10.0 mi East 4.6 mph - N/A   Clear
10:53 AM 73.0 °F 55.0 °F 53% 30.00 in 10.0 mi Variable 3.5 mph - N/A   Clear
11:53 AM 77.0 °F 53.1 °F 43% 29.99 in 10.0 mi South 6.9 mph - N/A   Clear
12:53 PM 79.0 °F 53.1 °F 40% 29.98 in 10.0 mi SW 8.1 mph - N/A   Clear
1:53 PM 77.0 °F 55.9 °F 48% 29.97 in 10.0 mi SSW 9.2 mph - N/A   Clear
2:53 PM 75.9 °F 57.0 °F 52% 29.96 in 10.0 mi West 9.2 mph - N/A   Clear
3:53 PM 77.0 °F 57.0 °F 50% 29.95 in 10.0 mi SW 5.8 mph - N/A   Clear
4:53 PM 73.9 °F 57.9 °F 57% 29.94 in 10.0 mi SSW 5.8 mph - N/A   Clear
5:53 PM 71.1 °F 57.0 °F 61% 29.94 in 10.0 mi South 6.9 mph - N/A   Clear
6:53 PM 66.9 °F 55.9 °F 68% 29.94 in 10.0 mi SSE 6.9 mph - N/A   Clear
7:53 PM 63.0 °F 55.9 °F 78% 29.95 in 10.0 mi SE 6.9 mph - N/A   Clear
8:37 PM 63.0 °F 57.0 °F 81% 29.95 in 10.0 mi SE 6.9 mph - N/A   Mostly Cloudy
8:53 PM 63.0 °F 57.9 °F 84% 29.96 in 10.0 mi ESE 6.9 mph - N/A   Overcast
9:08 PM 63.0 °F 57.9 °F 84% 29.96 in 10.0 mi ESE 6.9 mph - N/A   Overcast
9:37 PM 63.0 °F 57.9 °F 84% 29.96 in 10.0 mi SE 5.8 mph - N/A   Overcast
9:53 PM 63.0 °F 57.9 °F 84% 29.96 in 10.0 mi SE 4.6 mph - N/A   Overcast
10:53 PM 64.0 °F 59.0 °F 84% 29.96 in 10.0 mi East 6.9 mph - N/A   Overcast
11:53 PM 63.0 °F 59.0 °F 87% 29.96 in 10.0 mi SSE 4.6 mph - N/A   Overcast